Theta_e
317 316 316 316 317 317 316 317 318 319 321 325 326 324 322 319 318 324 328 329 329 328 327 327 327 327 327 326 325 325 326 327 326 325 325 324 324 323 323 323 323 324 325 325 326 326 326 327 326 326 325 325 325 325 325 324 324 326 326 326 326 326 326 325 324 324 324 325 326 325 325 324 324 323 323 323 322 321 321 321 321 321 321 320 320 320 320
317 315 315 315 316 317 317 316 317 319 320 322 324 325 327 323 321 326 328 328 327 327 326 326 326 325 326 326 325 325 325 325 324 324 325 324 321 321 321 321 321 321 322 324 324 325 324 325 326 325 324 324 323 324 324 322 323 323 322 323 325 325 325 324 323 324 325 325 325 325 324 324 323 322 322 323 323 322 323 324 322 321 321 320 320 321 321
316 316 315 315 315 316 316 317 316 318 318 319 322 323 324 327 328 328 327 327 326 324 323 322 318 316 317 319 320 319 320 322 324 324 325 322 319 319 320 319 318 317 317 318 319 321 322 323 324 323 323 324 323 323 323 323 323 324 323 323 324 324 324 323 323 324 324 324 324 324 324 324 323 323 323 324 323 323 324 324 323 322 322 321 321 321 321
317 316 316 316 316 316 316 317 317 317 317 318 319 319 320 324 327 326 325 325 324 321 317 313 310 309 309 310 311 310 311 313 316 316 315 314 314 314 314 313 312 311 311 311 312 313 315 318 321 322 323 323 323 323 323 323 324 324 324 324 324 324 325 323 322 323 323 323 324 325 324 324 323 323 323 324 324 324 323 323 323 322 322 322 322 322 322
316 316 317 317 317 318 317 318 318 317 317 317 318 317 317 320 324 324 323 323 321 318 312 308 307 307 306 306 306 307 308 307 308 308 307 307 307 307 307 307 307 307 307 307 307 307 309 310 313 315 317 320 321 321 321 322 323 324 324 323 323 324 324 324 323 323 323 324 324 325 325 324 324 323 323 323 323 323 323 322 322 322 322 322 323 323 322
317 318 318 319 320 320 319 318 318 318 316 316 317 317 316 318 321 322 322 322 319 314 309 307 306 305 304 303 303 304 305 304 304 304 304 304 304 304 305 304 305 305 306 306 305 306 307 307 307 308 309 312 315 317 318 319 320 321 321 321 321 321 323 323 324 323 324 323 324 324 324 324 323 323 322 322 322 323 323 323 322 321 321 322 322 322 322
318 319 320 321 321 320 318 316 316 316 316 316 316 316 316 316 318 318 319 319 315 310 308 307 306 304 303 302 301 302 302 302 302 301 302 302 302 302 303 303 304 305 305 305 305 305 306 306 307 307 306 307 310 312 314 315 315 315 316 316 315 315 316 317 319 321 322 322 322 323 323 322 322 321 322 322 322 322 323 322 322 322 322 322 322 322 322
318 319 320 320 319 317 316 315 316 316 316 315 316 317 317 315 314 314 314 313 310 308 307 307 306 305 304 303 303 303 302 301 302 302 302 302 302 301 301 302 303 304 304 304 304 304 304 305 306 306 305 306 307 308 310 312 313 313 313 313 313 313 313 312 313 314 315 317 318 320 321 321 322 322 322 323 322 322 322 322 322 322 322 322 322 321 322
317 318 319 318 317 317 316 315 315 315 315 315 316 317 317 315 312 312 311 310 309 308 308 307 306 306 306 305 304 304 303 303 303 303 303 303 303 302 302 302 302 303 303 303 303 303 302 303 304 304 304 305 306 306 307 309 310 309 310 310 311 311 312 311 312 312 312 313 313 314 315 316 318 321 322 322 322 321 322 322 322 321 321 321 321 321 322
315 317 319 319 318 318 316 313 312 312 312 314 314 315 315 313 311 311 311 311 310 309 308 308 308 308 307 306 305 304 304 304 303 304 304 304 304 304 303 303 303 303 303 303 303 303 303 303 303 303 303 304 305 305 305 306 307 307 306 307 308 308 309 310 311 312 312 312 312 313 313 313 314 316 318 319 320 321 321 321 321 321 320 320 320 321 321
315 316 318 318 318 317 314 311 310 308 309 311 313 314 314 312 310 309 310 311 310 309 309 308 309 309 308 307 305 304 304 304 303 304 304 304 304 304 304 304 304 304 304 304 304 304 303 303 303 303 303 303 304 305 304 305 307 307 305 305 306 306 307 308 309 310 311 312 312 312 312 313 313 314 314 315 317 318 319 319 319 320 319 319 319 320 320
314 314 314 314 314 313 312 311 309 308 308 310 313 315 314 312 310 309 309 310 309 310 309 309 309 309 308 307 306 305 304 304 304 304 304 304 304 303 303 303 303 303 303 303 303 303 302 302 303 303 303 303 303 304 303 304 306 307 305 305 305 305 305 306 307 309 309 310 311 311 311 311 312 312 313 312 313 315 316 316 316 317 317 317 318 318 318
312 313 314 313 312 311 309 310 308 308 310 311 313 314 312 311 310 310 309 310 309 308 308 307 307 307 306 305 305 305 304 304 304 304 303 303 302 302 302 301 301 301 302 302 302 302 302 302 302 302 303 303 303 303 303 303 305 305 305 305 304 303 304 304 306 307 307 308 309 309 309 310 310 311 312 312 312 312 313 314 314 314 315 315 315 316 316
312 313 313 313 312 309 307 309 308 308 311 312 311 311 310 309 310 309 308 308 307 306 306 305 305 305 305 304 304 304 303 303 303 303 303 302 302 301 301 301 300 300 301 301 301 301 301 301 302 302 302 302 303 303 303 303 304 304 305 305 304 303 304 304 304 305 305 306 307 307 308 308 309 309 310 310 311 311 311 312 312 312 313 312 313 313 313
310 311 313 313 312 309 307 308 309 309 310 310 309 308 308 308 308 307 307 307 306 306 305 305 305 304 304 304 304 303 303 302 302 302 301 301 301 300 300 300 299 299 299 300 300 300 301 301 301 301 301 301 302 302 303 303 303 303 304 304 304 303 303 303 304 304 304 304 304 305 307 307 308 308 309 308 309 310 310 311 311 311 312 311 311 311 311
309 311 312 311 310 308 307 308 308 308 308 308 309 308 307 307 307 306 306 306 306 305 305 305 304 304 304 304 303 302 302 301 301 301 301 300 300 300 300 300 299 298 299 300 300 300 300 301 300 300 301 301 301 301 302 302 302 302 302 303 303 303 303 303 303 303 303 304 304 304 305 306 306 308 308 308 308 308 308 310 310 311 312 311 311 311 310
309 310 309 308 307 307 307 306 306 306 306 306 307 307 306 306 306 305 305 305 305 305 305 304 303 303 303 302 302 301 301 300 300 300 300 300 300 300 300 300 299 299 299 300 300 300 300 300 300 300 300 300 300 300 301 301 301 301 301 302 302 303 303 303 303 303 303 303 303 304 304 304 305 306 306 306 307 307 307 308 309 310 311 311 311 311 310
307 308 307 306 306 306 306 305 305 305 305 304 304 304 304 305 304 304 304 303 303 303 304 303 302 301 302 301 300 300 300 300 300 300 300 300 300 300 300 300 299 299 299 299 300 300 300 300 300 299 299 300 300 300 300 300 300 301 301 301 302 302 302 303 303 303 303 303 302 302 302 303 304 304 305 305 306 306 306 307 307 309 310 310 311 311 311
307 307 307 306 306 305 305 304 304 304 304 304 304 303 303 303 303 303 302 302 301 301 301 302 301 301 300 300 300 300 300 300 300 300 300 300 300 300 299 299 298 298 299 299 299 299 299 299 299 299 299 299 299 299 299 299 299 300 300 300 301 301 301 302 302 302 303 302 302 302 302 303 303 303 303 303 304 305 305 305 306 307 307 308 309 310 310
307 307 306 305 304 304 304 304 303 303 303 302 302 302 302 301 301 301 301 301 301 300 300 300 301 300 300 300 300 299 300 300 300 300 300 299 299 299 299 298 298 298 298 298 298 298 298 298 298 298 298 298 298 298 298 298 299 299 299 299 300 300 300 300 301 301 302 302 302 302 302 302 302 302 302 302 302 303 303 304 305 306 306 307 308 309 310
306 306 305 305 304 304 304 304 303 303 302 302 302 302 301 301 301 300 300 300 300 300 300 300 301 300 300 299 299 299 299 300 299 299 299 298 298 298 298 298 297 297 297 298 297 297 297 297 297 297 297 297 298 298 298 298 298 298 298 298 298 299 299 299 299 300 300 300 301 301 301 301 302 302 302 302 302 302 302 303 304 303 303 304 305 305 306
305 305 305 304 304 304 303 303 303 302 302 302 302 302 301 301 300 300 300 300 300 300 300 300 300 299 299 299 299 299 299 299 299 298 298 298 298 297 297 297 297 296 296 296 296 296 296 297 297 297 297 297 297 297 297 297 297 297 297 297 298 298 298 298 299 299 299 299 300 300 300 300 300 300 300 301 301 301 302 302 301 301 301 301 301 302 302
304 304 304 303 303 303 303 302 302 302 302 301 301 301 301 300 300 300 300 300 300 299 299 299 299 299 298 298 298 299 298 298 298 297 297 297 297 297 297 296 296 296 296 296 296 296 297 297 297 297 297 297 297 297 297 297 297 297 297 297 297 297 297 297 298 297 298 298 298 298 299 299 299 299 299 299 300 300 300 301 300 301 301 300 300 301 300
303 303 302 303 303 303 302 302 301 301 301 301 301 300 300 300 300 300 299 299 299 298 299 299 299 298 298 298 298 298 298 298 297 296 297 297 296 296 296 296 296 296 296 296 297 297 297 297 297 297 297 297 297 297 297 297 296 296 296 296 296 296 296 297 297 297 297 297 297 298 298 298 298 299 299 299 299 299 299 300 300 300 301 300 300 300 300
302 302 302 302 302 302 302 301 301 301 301 300 300 300 300 299 299 299 299 298 298 298 298 298 298 298 297 297 297 297 298 297 296 296 297 297 296 296 296 297 296 296 297 297 297 297 297 297 297 297 297 297 297 297 296 296 296 295 295 295 295 295 296 296 296 296 296 297 297 297 297 298 298 298 298 298 298 298 299 299 299 299 300 300 300 300 300
301 301 301 301 301 301 301 300 300 300 300 299 300 300 299 298 297 298 298 298 298 298 298 297 297 297 297 297 297 297 297 297 296 296 297 297 296 297 297 297 297 297 297 297 297 297 297 297 297 297 297 297 297 296 296 295 295 295 295 295 295 296 296 296 296 296 296 297 297 297 297 297 297 297 297 297 298 298 298 298 298 298 299 299 299 300 300
300 300 300 300 300 300 300 299 300 300 299 299 299 299 299 298 297 298 298 297 297 297 297 297 297 297 297 297 296 296 296 296 296 297 297 297 297 297 297 297 297 297 297 297 297 297 297 297 297 297 297 297 296 296 296 295 295 295 295 296 296 296 296 296 296 296 296 296 297 297 297 297 297 297 297 297 297 296 297 297 297 298 298 299 299 300 300
300 299 299 299 299 299 299 299 300 299 299 298 299 298 298 298 298 298 298 297 297 297 297 296 296 296 297 296 296 296 296 296 296 297 297 297 297 297 297 297 297 297 297 297 297 297 297 297 297 297 297 297 297 297 296 296 296 296 296 296 296 296 297 297 296 296 296 296 296 296 296 296 296 295 295 295 295 295 296 296 296 297 297 298 299 299 300
299 299 299 299 299 298 298 298 298 298 298 298 298 298 298 298 297 297 297 297 297 297 297 296 296 296 296 296 296 296 296 296 296 296 296 296 296 296 296 297 297 297 298 297 297 297 297 297 297 297 297 297 297 297 298 297 297 297 297 296 296 297 296 296 295 295 295 295 295 295 294 294 294 294 294 294 294 295 295 295 295 296 296 297 298 298 299
299 299 299 298 298 298 298 298 298 298 298 298 298 298 298 297 297 297 297 297 297 297 296 296 296 296 296 296 296 296 296 296 296 296 296 296 296 296 295 295 296 298 298 297 297 297 297 297 298 298 297 297 298 298 298 298 297 297 297 297 297 296 296 295 294 294 294 294 294 294 293 293 293 293 294 294 294 294 294 294 295 295 295 296 297 297 298
299 299 299 299 298 298 298 298 298 298 298 298 298 297 297 297 297 296 297 297 297 296 296 296 296 296 296 295 295 295 295 295 295 295 295 295 295 294 293 293 294 297 297 297 296 297 297 297 298 298 297 297 298 298 298 298 298 298 297 297 297 296 295 295 294 294 293 293 293 293 293 293 293 293 293 293 293 293 293 293 294 295 295 295 296 296 297
299 299 299 298 298 298 298 298 298 298 297 297 297 297 297 297 297 296 296 296 296 296 296 296 296 295 295 294 294 293 292 293 294 294 293 293 293 292 292 293 294 295 296 296 297 297 297 297 298 298 297 297 298 298 298 298 298 298 297 297 296 296 295 295 294 294 293 293 293 293 293 292 292 292 293 293 293 293 293 293 293 294 294 294 295 295 296
299 299 298 298 298 298 298 298 298 298 297 298 298 297 297 297 297 297 297 296 296 296 295 295 295 294 293 292 292 292 291 291 292 292 292 292 292 292 292 293 294 295 296 297 297 297 297 298 298 297 297 297 298 298 298 298 298 298 298 297 296 296 295 294 294 294 293 293 292 292 292 292 292 292 292 293 293 293 293 293 293 293 294 294 294 294 296
299 298 298 298 298 298 297 297 297 297 297 297 298 298 298 297 297 296 296 296 296 295 295 294 293 293 292 291 291 291 290 290 291 292 292 291 291 292 292 293 294 295 296 297 297 297 297 298 297 297 296 297 297 298 298 297 298 298 298 297 296 295 295 294 294 293 293 292 292 292 292 292 292 292 293 293 293 292 292 292 293 293 293 293 294 294 295
299 299 299 298 298 298 298 298 297 297 297 298 297 297 297 297 297 296 295 295 295 295 294 293 292 291 290 290 290 290 290 289 290 291 291 291 291 292 293 293 294 295 297 298 297 297 297 297 297 296 296 296 297 298 298 297 297 298 298 297 296 295 295 294 294 293 293 293 292 292 292 291 292 292 293 293 293 292 292 292 292 293 293 293 294 294 295
299 299 299 298 298 298 298 298 298 297 298 298 297 297 297 297 296 296 295 295 295 295 294 293 292 291 290 290 290 290 290 289 289 290 291 291 291 292 293 293 294 294 296 297 297 296 297 297 296 296 296 297 297 298 297 296 297 297 297 297 297 296 295 295 294 294 293 293 292 292 292 291 291 292 292 292 292 292 292 292 292 293 294 294 294 294 295
299 299 298 298 298 298 298 298 298 297 298 298 297 297 297 296 296 295 295 295 295 295 294 293 292 291 290 290 289 290 290 290 289 290 291 291 291 292 293 293 293 294 296 296 296 296 296 296 295 295 296 297 297 298 297 296 296 297 297 297 297 296 296 295 295 294 293 293 292 292 292 291 291 291 292 292 292 292 292 292 292 293 293 293 294 294 294
298 298 298 298 298 298 298 297 297 297 297 297 297 296 296 295 295 296 295 295 295 295 294 294 292 291 290 290 290 290 290 289 288 289 291 291 291 291 293 294 294 295 295 295 295 295 296 295 294 294 296 297 297 296 296 296 296 296 297 297 297 296 296 296 295 295 294 293 293 292 292 292 292 292 291 292 292 292 292 292 292 292 292 292 293 293 293
298 298 298 298 298 298 298 297 297 297 297 297 297 296 295 295 295 295 295 295 295 295 295 295 294 292 292 291 292 291 290 288 288 289 290 291 291 292 293 294 295 295 295 295 295 295 295 293 292 293 295 296 295 294 294 294 295 295 296 297 297 296 296 296 295 295 295 294 293 293 293 292 292 292 292 292 292 292 292 292 292 292 292 292 292 292 292
298 298 298 298 298 298 297 297 297 297 297 297 296 296 296 296 295 295 295 295 295 295 295 295 295 294 294 293 294 294 293 291 290 291 292 292 292 292 293 295 295 295 295 294 293 293 293 292 292 293 293 293 292 292 292 293 295 295 295 296 297 296 296 296 296 295 295 295 294 294 293 293 293 293 292 292 292 292 292 292 292 292 292 292 291 291 292
298 298 298 298 298 298 298 297 297 297 297 296 296 296 296 296 295 295 295 296 295 295 295 295 294 294 294 294 295 294 293 293 293 293 294 295 294 294 295 296 296 295 294 292 291 291 293 293 293 293 291 289 289 290 292 294 295 295 295 295 296 296 296 296 296 295 295 295 294 294 294 294 293 293 293 293 293 292 292 292 292 291 291 291 291 291 291
298 298 298 298 298 298 297 297 297 297 297 297 296 296 296 296 296 295 296 295 295 295 295 294 294 293 294 294 294 293 292 292 292 293 294 295 296 296 297 296 295 294 293 290 289 291 294 293 293 292 290 288 289 291 293 294 294 295 295 295 295 295 296 296 296 295 295 295 294 294 294 293 293 293 293 293 293 293 292 292 291 291 291 291 291 291 291
298 298 298 298 298 297 297 297 297 297 297 297 296 296 296 296 296 296 296 295 295 295 295 294 294 293 293 293 293 292 291 291 291 292 294 295 295 296 296 295 294 293 292 289 289 292 294 293 292 291 288 287 289 292 293 293 294 295 295 295 294 295 295 295 295 295 295 295 294 294 294 293 293 293 292 292 293 293 292 292 292 292 292 291 291 291 291
298 298 298 298 297 297 297 297 297 297 297 297 297 297 297 296 296 296 296 296 296 295 294 294 294 294 293 293 293 292 291 291 290 291 293 294 295 295 295 294 293 292 290 288 289 292 293 292 291 290 287 286 289 291 292 292 293 293 294 294 294 294 294 294 294 294 294 294 294 293 293 293 293 292 292 292 292 292 292 292 291 291 291 291 291 291 290
298 298 298 298 297 297 297 297 297 297 297 297 297 297 297 297 297 297 296 296 296 296 295 294 294 293 294 294 293 293 293 292 291 291 293 294 295 294 293 292 292 290 288 287 289 292 293 292 291 288 286 287 290 291 292 292 293 293 293 293 293 293 293 293 293 293 293 293 293 293 292 292 292 291 291 291 290 290 290 290 290 290 290 290 290 290 289
298 298 298 297 297 297 297 297 297 297 297 297 297 297 297 297 297 297 297 297 296 296 296 295 294 293 293 293 293 294 293 293 292 292 293 294 294 294 292 292 291 289 286 287 289 292 292 291 288 286 286 289 291 291 292 292 292 292 293 293 293 293 293 293 292 292 291 291 291 292 291 291 291 290 290 289 289 289 289 289 289 289 289 288 288 288 288
298 298 298 298 298 297 297 297 297 297 297 297 297 297 297 297 297 297 297 297 297 297 296 296 295 294 293 293 293 294 293 293 292 292 292 293 293 293 292 291 290 287 286 287 291 292 290 288 285 285 287 290 291 291 292 292 292 292 292 292 292 293 293 292 292 291 291 290 290 290 290 290 290 290 289 289 289 288 288 288 288 288 288 287 287 287 287
298 298 298 298 298 298 297 297 297 298 298 298 297 297 297 297 297 297 297 297 297 297 297 297 296 295 294 293 293 293 293 293 293 292 292 292 292 291 289 289 287 285 285 287 288 288 287 285 285 286 288 290 291 291 292 291 291 291 291 291 291 292 292 292 292 292 291 291 291 290 290 290 289 289 288 288 288 288 288 288 287 287 287 287 286 286 286
298 298 298 297 297 297 298 298 297 298 298 297 297 297 297 297 297 297 297 297 297 298 297 297 297 296 295 294 293 293 292 293 293 293 292 292 292 291 290 289 286 284 285 288 289 288 286 285 285 287 289 290 291 292 291 291 290 290 289 289 289 289 290 290 291 291 291 291 291 291 290 290 289 289 288 288 287 287 287 287 286 286 286 285 285 285 285
298 298 298 297 297 297 297 297 297 297 297 297 297 297 297 297 297 297 297 297 297 298 298 298 298 297 296 295 294 293 292 292 293 293 293 292 292 292 292 290 287 285 286 290 293 291 287 285 285 287 289 291 291 291 291 291 289 288 288 288 288 288 288 288 289 289 290 290 290 290 290 289 289 288 288 287 287 286 286 286 286 285 285 285 284 284 284
298 297 298 298 298 298 297 297 297 297 297 297 296 296 297 297 297 296 297 297 297 297 297 297 297 297 297 296 295 293 293 292 292 292 292 292 292 292 292 290 288 285 286 290 292 291 288 286 286 286 288 290 291 290 290 290 289 288 288 289 288 288 288 288 288 288 288 289 289 289 289 289 289 288 288 288 287 287 287 287 286 286 285 285 284 284 283
298 298 298 298 298 298 297 297 297 297 297 297 296 296 296 296 296 296 296 296 296 296 296 296 296 297 297 297 296 295 293 292 292 291 291 291 291 291 291 290 289 286 285 287 290 290 290 289 288 287 287 290 291 290 288 289 289 289 288 289 289 288 288 288 287 287 287 287 288 288 289 289 288 288 288 288 288 288 288 287 287 286 285 285 284 284 284
Wind_Speed
5 5 3 1 2 5 7 11 13 14 16 15 12 9 8 4 3 4 7 9 11 9 8 11 9 7 8 9 8 3 1 3 7 9 11 11 12 12 12 12 11 11 9 8 7 7 7 9 9 8 10 9 7 6 5 4 7 8 8 8 9 10 11 10 9 11 13 12 11 11 12 11 7 3 7 8 8 8 8 10 11 12 12 11 11 10 9
4 2 0 3 2 4 2 6 11 13 14 15 15 14 14 6 6 12 13 13 12 9 9 11 10 8 8 8 7 6 3 3 5 7 8 10 12 13 12 12 12 11 11 9 8 5 4 7 9 10 9 8 7 6 4 4 7 8 9 8 7 6 8 8 8 11 13 12 14 13 11 11 11 10 12 12 12 9 5 6 8 10 11 11 10 9 7
5 4 3 1 2 2 2 1 5 9 11 12 12 11 12 6 9 16 15 14 11 7 9 12 11 10 10 10 11 9 6 5 5 6 7 10 13 13 13 13 13 14 14 12 10 9 7 8 11 10 8 8 9 6 6 6 6 8 9 8 5 5 4 5 8 11 11 12 13 12 11 11 12 12 12 13 13 12 8 7 8 8 10 10 8 7 6
4 5 6 4 2 1 2 4 2 2 6 8 9 9 8 5 5 12 12 10 7 6 10 12 12 13 14 14 14 13 11 11 12 12 13 13 14 14 15 16 16 17 17 18 19 19 17 14 12 10 8 7 6 4 6 8 6 5 8 8 6 5 3 5 8 9 9 10 10 9 8 8 8 9 10 10 9 9 9 10 11 10 8 7 6 5 5
4 4 5 4 2 2 4 4 4 4 3 6 8 10 11 9 3 2 5 7 8 10 12 12 12 14 15 14 13 12 13 14 15 15 16 16 17 17 17 17 18 18 19 20 22 24 26 24 19 15 11 6 2 3 7 9 7 6 8 8 7 6 4 5 7 8 8 8 8 8 7 6 6 5 6 7 7 8 10 13 14 13 11 9 7 4 4
4 1 6 5 2 3 0 3 2 3 4 7 8 7 9 9 5 3 6 10 12 12 12 12 12 13 13 12 12 12 12 12 13 14 15 16 16 16 16 16 17 18 20 22 23 24 25 27 28 28 27 21 10 5 7 8 7 7 8 8 8 7 6 6 7 8 8 8 8 8 7 7 7 6 5 6 7 7 10 13 15 15 15 13 10 7 4
1 1 3 4 2 1 1 3 3 4 6 10 12 9 6 7 8 10 11 11 13 14 13 13 13 12 11 11 11 12 12 11 12 13 13 13 14 14 14 14 15 17 19 20 21 23 24 26 27 28 32 34 27 18 12 9 10 11 11 12 12 11 10 10 9 9 8 7 7 7 7 8 8 7 8 9 10 10 12 14 14 15 15 14 13 11 9
1 2 3 2 0 1 2 3 3 5 7 10 9 7 5 6 9 11 12 12 14 16 15 12 11 11 11 10 9 9 11 10 9 10 9 9 10 10 12 13 14 16 18 18 19 22 25 27 26 26 29 32 34 32 25 15 13 15 15 13 13 14 15 14 12 10 9 6 5 5 7 8 9 10 10 9 10 11 11 11 10 11 12 12 13 12 11
1 2 2 1 1 1 2 4 5 5 4 3 4 4 4 6 8 9 11 12 13 14 13 12 10 10 10 9 7 8 9 9 8 9 8 7 8 9 10 12 13 14 16 17 18 21 24 25 24 24 26 27 27 30 31 25 22 23 21 18 16 16 16 15 14 13 12 10 8 6 4 2 3 8 9 7 7 8 9 9 9 10 10 11 12 12 12
2 2 2 1 1 1 2 6 8 7 7 6 4 7 7 7 9 10 10 11 12 12 12 11 10 9 8 7 5 6 9 10 10 11 11 11 10 9 9 9 9 9 10 11 13 14 16 18 18 19 20 20 20 22 24 25 24 24 23 21 19 18 18 17 15 13 13 13 12 10 10 10 8 5 4 4 5 6 6 7 9 11 11 11 11 11 13
4 4 3 1 0 0 2 6 8 7 8 9 4 4 6 8 11 11 11 11 11 11 12 11 8 6 6 6 5 6 8 10 11 11 11 11 11 9 8 7 5 4 3 5 7 10 10 11 13 12 13 15 16 16 16 16 15 16 17 16 16 16 17 16 15 13 12 13 13 13 14 14 13 10 7 4 1 4 5 5 8 10 9 8 9 11 13
3 3 2 1 2 3 4 5 6 6 7 7 3 3 6 8 11 11 11 12 11 10 10 7 4 4 6 7 7 8 9 10 11 10 10 10 10 10 8 6 5 4 5 5 6 8 9 9 9 9 10 11 12 12 11 10 9 10 11 12 12 12 13 13 12 11 11 12 12 12 14 14 13 11 10 10 9 5 4 6 9 10 11 11 11 12 14
2 2 0 2 3 3 7 8 7 6 6 4 1 4 4 5 9 10 9 10 10 9 8 7 6 7 9 9 10 10 10 10 9 10 10 10 10 10 9 8 8 7 6 7 7 8 9 9 9 9 9 8 8 8 9 9 8 9 10 10 11 12 13 13 12 11 10 10 10 10 11 12 11 11 10 11 13 11 7 7 9 10 11 13 14 15 18
3 1 2 2 3 2 6 9 7 6 4 1 3 4 5 6 7 9 10 11 11 11 10 10 9 10 11 11 10 10 9 9 8 8 9 9 9 9 9 9 9 8 7 7 8 8 8 8 9 9 9 8 8 8 8 9 10 10 9 9 11 12 13 12 12 12 11 11 11 10 10 9 9 10 10 11 13 13 12 10 11 11 10 9 12 14 16
4 0 3 3 3 3 5 6 4 4 3 3 4 5 8 10 9 9 11 11 9 9 11 11 11 11 11 11 10 9 8 7 7 7 7 8 8 8 7 8 9 9 8 7 8 8 8 8 8 8 9 8 8 8 9 10 11 11 11 10 10 11 12 12 13 13 13 13 12 11 10 10 10 11 11 11 12 13 14 13 13 13 13 10 11 13 13
4 2 4 3 3 5 4 4 5 7 7 5 2 5 8 9 8 9 9 8 8 9 10 11 10 10 10 9 8 8 7 6 5 6 7 7 7 7 6 7 8 8 7 7 8 7 7 8 9 9 9 9 9 9 10 11 11 12 12 12 12 12 12 13 13 13 13 14 13 13 12 12 12 12 11 12 13 14 15 16 15 15 15 14 13 13 13
5 5 6 5 5 6 7 8 9 10 11 10 9 9 8 7 8 8 7 7 8 8 9 10 9 7 7 7 6 6 6 5 5 6 7 6 6 6 5 6 8 8 6 6 6 6 6 8 9 9 10 10 11 11 11 12 12 12 12 13 13 13 13 12 13 14 14 15 15 14 14 14 14 14 14 14 15 15 15 17 17 16 16 16 16 16 16
8 8 7 7 7 7 8 9 9 10 11 11 12 12 10 8 9 9 7 7 8 7 6 8 7 6 6 6 5 5 5 5 5 6 6 5 4 4 5 6 6 7 6 6 5 6 7 8 9 9 10 10 10 11 12 13 13 13 13 14 14 13 13 13 14 14 15 16 16 16 16 16 15 16 16 15 16 16 16 16 17 17 17 18 17 15 15
3 5 7 7 7 7 7 7 8 9 10 10 10 10 9 9 10 9 8 8 7 7 6 6 7 6 5 5 4 4 4 5 6 6 6 5 5 4 5 5 5 6 6 5 5 6 7 8 8 8 9 9 9 10 11 12 13 14 14 14 14 14 14 14 15 15 15 16 16 16 16 16 16 16 17 17 17 17 17 17 17 18 19 18 17 17 15
2 6 9 8 8 8 7 7 7 7 8 10 10 9 10 10 10 9 9 7 6 6 5 5 6 6 6 4 3 3 4 5 6 6 6 5 5 5 4 5 4 5 5 5 6 7 8 9 9 10 10 10 11 11 12 13 14 14 14 14 14 14 14 15 15 16 16 17 18 18 17 17 17 18 18 19 19 17 16 15 12 10 10 11 9 9 8
6 7 9 8 8 8 8 8 8 7 7 9 9 9 9 9 8 8 8 8 7 6 5 4 4 5 6 6 4 3 4 5 5 6 6 5 5 5 5 5 5 6 7 7 8 8 8 8 9 9 10 11 11 12 13 14 16 17 17 17 16 15 14 14 14 14 16 17 17 17 17 17 18 19 18 19 19 19 19 16 13 12 12 12 11 10 9
4 6 7 5 5 6 7 8 9 8 8 8 8 8 8 7 7 7 7 8 9 9 7 5 5 4 5 6 4 4 4 5 5 6 6 6 5 6 6 6 7 7 7 7 7 6 6 6 7 7 8 9 10 11 11 12 13 15 16 16 16 16 16 15 15 16 17 17 16 16 16 17 18 19 20 21 21 21 23 23 23 25 24 19 16 14 12
6 7 6 3 3 6 7 7 7 7 6 5 6 6 5 4 4 5 4 3 5 6 5 4 5 5 5 5 5 5 4 5 7 7 6 6 6 7 7 7 7 6 6 5 5 5 5 6 6 7 8 8 9 10 10 11 11 12 13 13 13 14 14 16 18 19 18 17 18 18 18 18 18 19 22 23 22 21 22 23 24 26 27 24 20 19 18
8 7 6 5 6 7 7 6 6 6 5 5 6 6 7 6 6 7 6 4 3 3 1 1 4 7 6 5 6 5 4 7 9 6 4 5 7 6 6 6 6 5 5 5 5 5 6 7 7 8 8 9 10 10 10 11 11 11 11 11 12 12 13 14 17 18 17 16 17 18 18 19 19 18 20 21 20 20 21 20 19 20 23 24 21 19 18
7 5 6 8 8 7 6 5 6 5 5 5 7 8 10 10 7 6 6 3 2 2 3 3 4 6 6 5 6 5 5 7 7 4 4 5 7 5 5 6 6 5 5 5 5 6 7 8 8 8 9 10 11 11 10 10 10 9 9 9 10 10 11 12 13 15 16 16 16 16 17 18 18 18 18 19 19 20 21 21 21 20 20 20 20 19 17
7 4 4 6 6 5 3 3 5 4 3 2 4 7 9 8 3 2 5 5 5 5 5 4 5 5 5 5 6 6 5 5 4 3 3 5 5 5 6 6 6 6 6 5 6 7 8 9 9 9 10 11 11 10 10 10 10 9 9 9 9 10 10 11 11 12 13 14 14 14 15 16 17 18 19 17 17 18 19 20 21 21 21 21 21 19 19
5 3 3 3 4 4 4 4 4 4 2 0 1 3 6 6 2 1 3 5 4 3 4 4 3 4 4 4 5 4 4 4 3 3 3 4 5 5 6 5 5 5 5 5 6 8 9 9 10 10 10 10 10 10 10 10 10 10 9 9 9 10 10 9 10 10 11 12 13 13 14 14 15 17 18 19 20 19 17 16 18 19 19 19 18 17 18
4 3 2 2 2 4 4 4 3 1 1 0 2 2 1 2 1 1 1 2 3 3 2 2 2 3 3 4 4 3 3 3 3 3 3 4 4 4 4 4 4 4 4 5 7 8 9 9 10 11 9 8 9 11 10 10 10 9 9 10 10 10 10 10 10 11 12 12 12 13 14 14 16 18 20 21 22 21 20 18 17 17 18 16 15 16 16
4 3 2 3 4 3 2 1 0 2 2 1 3 3 3 1 1 1 1 1 3 2 1 1 2 2 3 3 3 3 3 2 2 3 2 3 3 4 4 5 5 3 2 5 7 8 8 9 10 11 9 7 9 11 10 9 8 8 8 9 9 9 9 10 11 11 12 12 12 13 15 17 18 19 19 18 19 20 19 19 18 17 17 16 14 14 14
3 2 1 2 3 2 1 1 0 2 2 2 2 1 3 3 3 3 1 2 2 0 1 1 1 2 2 3 3 2 2 2 2 3 3 3 4 5 6 7 7 4 3 6 7 7 8 9 10 11 10 9 10 12 11 9 9 9 7 7 8 8 8 10 12 11 11 12 12 14 15 16 17 17 17 17 18 19 19 19 18 18 18 16 13 12 11
4 2 1 2 2 2 2 2 2 2 1 2 2 1 2 3 4 4 1 2 2 1 1 2 2 1 2 3 3 3 3 3 2 2 3 3 5 6 6 6 6 5 4 5 5 6 7 8 9 11 11 10 9 11 11 10 9 10 9 7 7 8 8 10 11 11 11 12 12 13 14 15 15 15 16 17 17 18 19 17 16 15 15 13 12 12 12
3 4 3 1 3 3 3 2 3 2 1 1 2 2 2 4 4 4 2 1 2 2 3 3 2 1 3 4 5 5 5 4 3 2 1 2 4 6 6 4 4 5 4 4 4 6 7 8 9 10 11 10 9 11 12 10 9 10 11 9 8 8 8 9 10 10 10 12 12 12 13 15 14 14 15 15 14 15 14 13 12 11 10 9 11 12 13
5 5 4 2 3 4 3 3 3 2 1 0 1 2 3 5 6 5 3 2 2 3 3 0 3 5 4 3 3 3 3 4 4 4 4 4 4 5 5 4 4 6 5 4 5 6 6 7 9 9 10 10 10 11 12 11 9 10 11 9 8 8 9 9 9 9 10 11 13 13 14 15 14 13 13 13 12 11 9 7 6 6 6 7 10 12 13
5 5 2 1 2 3 4 5 5 3 1 2 2 3 5 8 7 4 2 1 3 3 1 5 7 5 2 1 2 3 3 5 5 3 4 4 4 3 3 3 5 7 6 5 4 5 5 7 9 9 9 11 11 10 11 12 10 10 11 10 9 10 10 10 9 9 10 11 12 13 13 15 15 14 13 11 10 9 7 6 5 5 6 8 10 10 11
4 5 3 0 2 4 4 5 5 4 1 2 3 4 6 8 6 1 3 0 4 3 4 9 7 3 2 2 3 5 5 6 6 4 3 4 3 1 1 3 5 7 7 4 2 3 4 7 9 9 9 11 11 9 10 11 10 9 10 10 9 11 11 10 10 11 11 11 11 13 14 15 15 14 13 12 11 10 9 8 7 5 5 6 5 5 7
5 5 4 2 1 3 4 5 4 3 0 2 4 5 7 7 5 2 2 3 4 4 9 9 6 5 4 5 5 6 7 7 7 6 5 4 2 2 2 3 4 7 6 3 1 2 5 8 10 9 9 11 10 8 10 11 9 8 9 8 8 11 11 11 11 11 11 11 12 13 15 16 15 15 14 13 12 12 12 11 11 9 7 4 3 3 5
5 4 3 3 2 2 4 5 3 1 2 4 5 6 6 5 5 4 5 5 4 9 11 8 7 7 7 6 6 7 8 8 7 6 6 5 4 4 5 5 6 9 8 4 2 3 5 8 9 7 8 9 8 8 9 9 7 8 8 7 8 10 11 11 11 11 11 11 12 12 13 15 16 16 16 15 14 13 13 14 14 13 13 11 9 10 14
4 3 3 3 3 2 4 5 1 2 3 5 7 7 7 7 6 5 4 4 3 8 11 8 7 7 7 7 8 9 10 9 9 9 9 8 7 7 7 6 7 7 6 2 3 4 5 7 7 7 9 9 7 8 9 7 6 7 7 6 8 9 10 10 11 11 11 11 11 12 13 14 14 14 16 16 15 14 15 16 16 16 18 19 19 20 22
3 2 2 3 3 3 5 5 3 5 7 8 8 7 8 8 5 3 3 4 4 6 10 9 7 7 8 9 10 11 10 10 9 9 9 9 9 9 9 8 6 4 3 3 3 3 5 6 5 7 9 8 8 8 8 7 7 9 7 4 8 9 9 10 10 10 10 11 10 11 13 14 14 14 14 14 14 15 15 17 17 18 19 21 21 22 24
4 3 3 4 4 3 4 5 4 4 7 8 8 7 7 7 5 4 5 6 6 5 7 7 7 8 10 12 11 9 8 9 9 8 8 9 9 9 10 9 7 5 4 3 2 1 2 3 3 5 6 7 7 8 7 7 9 11 7 4 7 7 7 8 8 8 9 10 10 10 11 12 13 14 13 12 13 14 14 15 16 17 17 18 19 20 21
5 4 4 4 3 4 4 5 4 5 5 6 6 6 6 4 4 5 5 6 5 4 5 5 5 6 6 6 5 3 5 6 7 8 9 9 9 10 9 7 6 7 6 3 1 1 1 3 2 2 6 6 5 5 5 7 11 11 7 5 5 6 6 7 7 8 8 8 9 9 10 11 11 13 13 12 13 13 12 13 14 14 15 16 16 17 18
6 5 5 5 3 3 5 5 5 6 7 7 7 7 6 4 4 5 5 5 5 4 3 4 6 5 4 2 2 3 2 4 6 7 7 8 9 9 7 4 7 8 4 2 1 1 1 1 2 3 7 6 2 1 4 9 12 10 6 5 6 6 7 6 6 7 7 8 8 8 8 9 10 11 12 12 13 13 13 14 13 14 14 15 15 16 17
7 7 6 6 4 3 4 5 6 7 8 7 7 8 7 7 7 8 7 6 5 4 4 4 6 7 5 4 3 4 4 5 7 7 7 7 8 8 4 4 8 6 3 1 2 2 1 2 3 5 7 4 1 1 4 9 10 8 6 6 7 7 7 6 5 5 6 6 7 7 7 8 8 9 11 12 12 12 14 15 14 14 14 14 15 15 16
6 7 7 6 5 5 5 4 5 7 7 7 8 9 9 9 9 8 8 7 5 5 5 5 5 6 6 7 6 5 5 6 7 7 8 8 9 9 6 6 6 3 3 2 2 1 1 3 3 6 5 1 3 2 5 7 7 6 5 5 6 6 6 6 6 6 6 6 7 7 7 7 7 7 8 9 10 11 12 13 14 13 13 13 13 14 14
7 10 9 8 7 7 7 5 6 6 7 7 8 9 9 9 9 9 9 10 8 4 4 5 6 6 6 7 7 7 7 7 8 8 8 6 5 7 9 8 5 3 3 3 3 2 3 5 6 6 1 4 5 4 5 4 4 4 4 4 4 4 5 5 6 6 7 6 6 6 6 6 6 6 7 7 8 9 10 11 12 13 13 13 13 13 13
9 12 11 9 9 10 9 7 7 7 7 6 7 9 10 10 11 10 10 10 10 6 5 7 7 6 6 7 7 6 6 6 7 8 6 2 3 7 11 10 6 3 2 4 3 3 5 5 4 2 4 6 5 5 4 3 3 3 3 4 4 4 4 5 5 5 6 5 5 5 6 6 6 6 7 6 6 7 7 8 9 9 10 10 11 11 11
10 11 9 9 10 10 8 9 11 10 9 7 7 7 8 10 10 10 10 10 10 9 8 7 7 7 7 7 7 7 7 6 7 7 6 4 4 6 9 8 6 5 5 5 5 6 6 4 1 3 7 7 5 4 3 3 3 3 3 3 3 4 4 4 5 5 5 5 6 6 7 7 6 6 6 6 6 6 6 6 6 7 7 7 7 7 8
10 10 8 8 9 9 8 8 12 11 8 8 8 8 8 9 9 10 10 10 10 10 9 8 8 8 8 8 7 7 7 6 6 7 9 8 6 6 7 6 5 5 7 7 6 5 4 2 4 8 10 7 5 4 3 2 3 3 3 3 4 4 4 4 5 4 5 5 6 6 6 6 6 6 6 6 5 5 5 5 6 6 6 6 6 6 7
9 9 9 9 9 8 10 9 7 9 12 13 11 7 5 8 10 10 10 10 11 11 10 10 10 9 9 9 9 8 7 6 4 4 8 9 8 8 7 5 4 4 6 6 4 2 1 2 7 10 9 6 4 3 3 3 3 3 4 4 4 4 4 4 5 6 5 5 5 6 6 6 6 7 7 6 6 6 6 6 5 5 6 6 6 6 6
8 9 9 8 8 7 7 9 11 12 13 11 11 10 8 8 8 9 9 9 8 8 8 9 10 10 10 10 9 9 9 8 5 4 6 7 8 8 7 6 5 5 7 7 5 4 2 2 8 10 8 5 4 2 3 3 4 4 4 4 4 4 4 5 5 5 5 5 5 6 6 6 7 7 7 7 7 7 7 7 8 8 7 7 6 6 5
6 9 10 8 6 7 7 9 10 11 9 8 11 14 11 5 4 10 11 7 4 4 7 9 9 10 11 12 11 9 9 9 8 8 7 7 7 8 8 7 6 6 8 9 6 5 4 2 7 10 7 4 2 3 4 4 4 3 4 4 3 4 4 4 3 4 4 5 5 5 5 6 7 7 7 6 6 6 6 7 8 8 8 7 7 7 7
7 9 11 9 7 7 8 9 10 11 11 12 14 14 9 3 3 9 14 13 8 6 5 8 12 13 10 9 11 11 11 10 10 9 9 8 7 8 9 9 7 7 8 10 8 5 5 5 5 6 6 5 3 4 5 5 4 3 4 3 3 4 4 3 4 4 4 4 5 5 5 6 6 7 6 6 7 6 7 7 8 8 8 8 8 8 9
Wind_Direction
235 241 251 118 179 245 306 336 343 354 2 14 18 351 329 290 211 138 118 115 107 103 89 80 89 106 113 123 131 129 10 59 87 93 91 92 95 92 87 87 85 86 90 87 66 49 64 91 100 96 87 86 90 89 87 119 141 158 171 173 177 171 171 188 193 173 173 181 185 184 180 187 202 153 143 168 182 188 197 198 199 202 208 214 213 213 219
201 187 209 46 88 194 221 353 358 1 10 30 38 9 343 338 119 115 115 107 95 99 100 81 70 73 83 94 103 109 114 87 75 81 82 84 86 82 80 78 71 69 78 90 99 92 79 88 90 90 99 113 112 103 120 149 154 161 171 182 187 168 167 179 168 159 168 181 188 182 170 182 198 181 170 182 186 181 191 200 197 202 211 220 221 219 216
210 181 174 113 63 96 117 58 4 8 15 31 49 32 352 350 107 111 112 107 96 91 86 73 57 48 55 64 62 56 58 63 65 68 70 78 82 80 78 72 60 54 52 48 55 65 70 83 83 73 75 97 112 136 160 154 157 165 160 157 153 140 153 161 150 158 172 178 181 181 177 182 185 177 181 194 196 194 201 211 210 211 213 218 223 223 214
226 198 204 203 124 27 259 215 207 27 34 37 48 48 13 346 117 120 114 109 110 101 77 61 51 48 50 54 56 53 48 45 49 54 51 52 58 60 60 54 43 37 33 26 23 24 28 43 68 74 62 64 82 115 123 110 96 95 104 110 120 123 127 139 149 165 176 175 171 165 166 173 174 180 192 199 203 209 218 226 231 231 227 223 225 227 231
235 203 186 172 150 222 256 247 226 201 130 72 50 38 25 13 13 136 120 116 115 102 84 69 56 53 52 51 52 59 62 56 52 53 53 51 50 47 45 43 38 32 29 26 20 17 19 22 28 40 44 47 109 113 92 100 108 99 96 104 118 127 119 112 132 147 149 152 153 145 147 156 160 178 198 202 212 222 228 235 238 234 228 224 216 209 224
255 193 130 140 200 219 241 343 316 196 146 96 80 56 34 32 37 64 101 118 116 100 89 87 78 65 60 58 51 52 60 64 58 52 52 53 51 49 46 44 41 34 28 24 20 18 20 20 19 21 19 13 19 69 83 88 98 102 104 98 91 98 100 93 104 113 112 120 136 146 157 158 153 162 181 197 210 214 217 225 230 228 226 225 221 215 219
286 67 128 162 230 256 82 29 32 99 110 99 91 79 58 54 62 74 89 105 105 95 91 94 93 88 83 75 61 54 56 65 69 61 53 49 48 47 44 41 41 36 29 23 17 14 16 19 19 19 15 12 15 25 40 57 60 61 70 68 53 48 50 56 74 86 90 108 131 145 158 162 163 168 178 187 191 194 203 211 217 221 225 228 229 227 226
175 173 208 202 153 35 75 79 76 94 113 112 95 74 72 71 62 71 87 93 94 98 100 99 100 103 99 85 75 72 67 65 71 70 61 53 52 52 50 48 44 40 35 31 23 19 21 22 19 17 17 18 19 19 21 34 49 48 54 55 43 36 33 33 38 44 52 73 94 111 137 157 171 175 179 187 187 192 204 208 210 217 223 229 235 234 228
273 219 190 113 114 143 89 67 52 51 69 107 115 112 117 105 86 83 94 97 100 106 109 109 112 108 94 79 76 92 98 97 96 94 87 75 67 65 66 63 58 54 52 45 35 29 29 27 23 20 21 24 24 17 13 18 27 28 31 33 30 27 25 22 23 24 24 30 36 40 54 76 151 162 167 181 189 201 214 211 205 212 219 224 228 231 233
242 219 189 182 188 171 32 17 15 17 8 4 70 117 119 117 115 109 104 107 112 116 120 129 135 119 92 81 83 96 106 107 104 102 101 95 86 82 81 78 70 63 64 62 54 45 40 36 30 25 23 24 23 17 12 12 17 19 19 18 17 16 13 11 14 17 16 16 18 17 15 14 22 55 105 159 182 199 215 214 213 220 230 236 234 234 239
214 208 207 227 218 45 8 0 359 1 360 351 353 121 116 120 128 124 119 120 123 129 137 148 156 136 107 108 125 130 123 118 115 115 117 117 115 110 106 108 110 97 90 92 73 55 48 46 38 29 24 20 18 19 14 9 17 22 15 9 8 7 3 359 2 10 15 16 14 9 6 9 13 11 2 345 260 197 194 209 223 226 231 240 239 234 233
269 245 231 129 105 51 7 355 356 359 357 342 301 163 122 124 133 132 135 139 138 141 144 140 129 121 115 114 125 135 131 125 122 116 107 107 109 103 92 83 83 87 87 80 59 42 37 37 34 32 29 18 14 16 6 356 15 26 8 359 2 359 350 343 345 359 10 12 11 5 359 359 0 354 344 335 325 293 229 225 229 219 209 206 206 207 213
295 282 76 114 113 46 348 338 348 353 342 332 220 150 113 112 124 121 121 123 117 114 114 97 76 90 106 107 112 117 113 106 103 96 88 85 84 82 79 60 39 43 61 60 46 35 30 25 21 23 23 11 4 3 350 342 358 5 353 350 350 344 338 334 338 348 353 352 355 351 343 342 343 341 335 329 326 321 303 275 261 247 223 207 201 203 208
293 222 106 87 94 48 312 311 330 341 337 11 128 125 90 80 94 92 80 79 85 89 92 92 89 91 99 104 108 111 107 98 92 85 80 76 68 65 69 62 40 22 26 41 34 22 18 18 16 12 6 360 353 345 337 338 344 345 343 341 335 330 329 330 332 335 333 330 331 328 324 324 321 318 314 310 313 315 310 297 286 282 271 233 215 216 210
313 355 88 83 75 34 313 303 333 4 34 99 135 122 94 84 86 86 77 74 83 91 93 97 100 99 101 105 105 104 102 95 88 83 77 72 66 54 45 48 38 16 10 21 15 5 6 10 10 4 354 348 345 337 331 332 333 331 330 329 324 324 326 324 322 321 316 312 311 306 303 303 299 297 297 295 297 301 303 300 289 283 283 269 247 241 223
323 26 68 78 77 55 34 43 60 51 44 47 72 95 93 93 92 87 81 79 84 89 91 92 94 98 101 100 98 99 101 95 89 89 80 66 58 50 40 41 34 14 8 10 358 353 2 3 0 357 349 341 337 333 327 326 327 326 323 322 321 320 318 315 313 312 308 305 303 298 294 295 292 289 288 286 284 283 284 288 285 276 272 268 258 252 241
45 75 95 101 91 74 65 66 69 62 51 43 48 61 75 93 91 79 74 76 74 80 96 99 94 97 104 101 95 100 104 98 88 84 79 65 49 38 36 39 29 10 1 357 346 348 2 359 352 348 344 339 334 330 327 326 325 321 316 316 316 314 313 312 311 311 309 307 305 301 297 294 290 287 285 281 279 278 273 273 275 272 267 266 260 252 247
80 83 97 102 93 80 67 62 65 68 63 58 60 64 68 82 89 83 79 75 59 53 86 105 101 97 101 102 106 111 110 107 103 93 84 76 62 48 46 43 26 2 350 349 350 355 357 352 347 342 338 335 330 327 328 328 326 322 320 318 314 312 311 310 307 306 304 303 303 300 297 295 290 286 284 280 277 276 273 270 271 270 266 264 264 261 256
113 101 110 110 104 98 88 78 75 76 73 70 71 73 73 78 83 83 82 84 72 54 64 93 104 102 100 104 111 116 115 112 105 93 81 71 62 52 49 45 24 356 346 348 350 348 344 341 339 334 327 324 323 325 329 328 324 321 319 317 317 316 313 310 309 307 304 302 304 302 298 296 295 292 290 289 283 276 274 274 272 272 273 271 268 269 269
84 111 119 118 116 114 108 100 93 84 79 76 76 81 83 82 84 86 85 88 87 72 67 87 107 110 103 89 80 91 102 98 85 73 66 62 55 44 40 39 20 353 345 348 346 343 342 340 336 333 333 335 336 337 336 334 331 327 322 317 313 309 307 309 310 307 303 302 305 304 299 294 294 292 290 290 289 287 288 290 289 294 315 325 315 296 287
96 115 126 129 130 124 112 107 107 105 103 101 101 105 104 98 99 102 101 99 97 91 79 79 95 104 95 76 55 55 74 74 62 53 50 50 47 39 29 22 17 8 2 358 351 344 342 341 337 338 341 342 343 341 338 337 337 336 334 331 324 315 307 303 300 301 303 299 293 291 290 288 288 286 283 283 284 284 287 293 300 311 326 340 346 349 0
124 128 130 131 131 125 115 109 107 107 111 115 116 114 110 106 104 109 117 124 117 106 91 77 74 77 75 65 46 41 64 66 52 42 40 35 30 27 19 13 17 17 8 1 357 352 350 350 347 347 345 342 341 340 335 334 333 330 329 329 325 321 317 313 316 325 326 317 308 304 303 300 297 293 290 286 281 279 278 276 279 286 291 294 298 305 313
97 113 119 96 96 117 118 111 108 110 112 112 113 108 98 99 113 109 92 85 95 95 96 107 97 72 57 53 43 32 36 48 46 37 28 26 23 19 17 17 18 17 14 12 13 8 2 358 353 350 348 343 341 340 335 332 330 324 319 317 313 312 314 315 321 330 332 328 328 329 327 322 318 314 308 298 288 287 288 282 278 281 282 282 285 287 286
92 101 94 82 97 114 115 112 113 106 85 74 87 83 58 49 78 98 85 66 76 82 58 78 78 63 47 40 42 27 14 43 49 28 356 27 38 28 27 35 34 32 33 30 23 15 7 2 357 353 349 347 348 348 341 334 331 324 318 314 309 307 309 310 316 322 323 325 328 329 328 326 323 323 326 319 309 305 304 301 302 299 288 280 278 280 283
94 89 84 96 113 125 130 133 123 97 66 64 83 83 65 49 51 78 87 79 75 65 29 6 33 44 34 26 32 27 22 43 45 355 333 39 54 42 43 50 44 38 35 23 17 16 10 4 358 352 353 358 0 355 344 337 336 331 324 318 312 309 309 311 315 318 319 321 322 321 323 323 320 322 327 327 323 321 317 313 316 319 312 300 290 283 284
102 101 99 108 119 118 110 125 123 103 81 96 109 97 88 78 57 62 78 60 29 20 24 19 16 20 22 23 30 29 24 27 20 344 10 54 61 53 54 49 34 31 32 23 22 20 8 2 1 359 1 6 3 355 349 348 347 342 334 328 319 311 309 309 309 309 310 311 312 312 314 316 317 318 320 320 322 326 325 321 320 321 320 317 308 291 277
94 98 100 117 129 107 75 82 108 102 82 120 156 101 104 113 142 198 105 93 73 35 27 23 8 359 9 26 35 39 32 17 5 9 44 57 50 41 38 28 24 33 31 19 20 16 5 3 5 4 4 3 356 351 353 352 346 341 337 333 324 318 320 322 320 318 316 312 309 310 313 313 311 310 309 309 312 314 315 316 317 316 314 317 321 309 281
89 85 62 64 91 91 85 95 123 170 214 113 31 11 83 124 112 318 329 109 98 73 35 8 357 355 9 25 29 27 28 17 3 9 41 47 36 26 17 9 15 27 21 16 20 15 8 6 0 356 1 2 352 349 347 341 338 342 343 338 332 329 335 341 338 328 322 316 311 311 312 310 307 304 301 300 301 303 302 301 300 302 304 310 327 333 313
94 83 68 70 67 60 70 105 116 273 252 102 55 358 315 309 301 271 257 85 72 59 352 317 347 353 7 24 22 11 11 4 346 346 13 22 14 9 5 355 343 339 5 20 22 16 6 357 352 354 4 7 355 352 350 344 346 358 358 346 337 333 338 347 347 336 326 320 315 312 311 309 308 307 302 297 296 296 295 293 288 288 295 301 312 325 321
109 103 88 84 75 33 310 284 265 262 235 137 120 290 306 311 284 263 232 95 84 20 271 291 338 341 356 6 6 7 1 337 319 320 334 2 15 17 7 349 335 335 18 20 15 9 357 350 352 358 3 3 356 354 354 352 353 1 6 357 346 343 347 356 356 347 336 329 324 320 319 318 316 312 304 298 296 292 288 285 281 280 285 292 301 317 322
144 138 70 32 14 309 295 301 289 269 239 134 143 233 286 288 279 281 297 111 141 231 243 249 264 300 3 357 8 29 19 348 328 321 322 344 355 350 346 341 333 336 1 2 348 343 345 348 354 356 354 353 352 350 351 355 358 1 8 12 5 359 1 3 2 356 347 341 335 331 329 328 324 320 313 306 301 295 288 280 274 274 281 288 301 323 333
171 179 177 239 284 280 274 282 287 289 293 178 183 212 253 267 269 272 259 179 188 216 231 247 260 61 49 22 21 29 16 353 346 343 303 299 310 313 323 339 322 307 314 320 313 324 340 348 352 353 351 351 352 352 355 2 5 0 4 16 23 18 14 13 8 4 358 352 347 344 343 340 334 328 325 320 313 304 293 278 266 271 290 306 315 327 331
203 215 204 218 267 275 279 293 297 294 294 196 197 217 247 254 251 251 251 230 209 230 246 245 80 80 71 41 14 6 338 313 291 245 220 233 275 304 327 338 296 280 281 284 298 319 339 350 351 351 348 346 349 355 360 4 6 3 6 19 32 29 26 23 16 10 8 5 360 355 354 352 347 341 336 333 329 322 309 292 280 286 307 317 310 310 314
218 247 259 14 353 320 324 331 323 312 244 155 174 213 235 240 241 248 275 268 244 249 182 104 102 97 83 37 287 273 282 294 289 243 210 234 266 299 337 327 289 278 272 268 295 326 344 354 354 351 345 345 350 356 0 2 6 8 10 23 41 41 34 29 26 21 18 12 6 3 3 3 2 359 353 348 346 347 341 328 316 300 292 295 295 298 308
219 255 264 320 3 333 326 321 314 309 259 166 180 212 232 238 237 173 91 3 278 263 133 125 133 157 191 219 249 253 255 274 289 284 246 242 252 276 314 296 289 285 275 261 285 332 345 350 345 333 330 341 350 357 1 3 8 10 9 22 47 52 42 35 34 33 28 20 15 15 16 16 17 18 18 17 14 15 16 10 355 329 297 295 306 324 328
219 245 255 247 294 326 318 306 307 323 45 161 187 214 225 228 225 186 171 240 250 162 136 143 165 185 193 217 239 247 251 262 274 277 264 245 232 232 236 247 278 285 273 256 280 326 331 334 328 317 321 337 349 1 4 2 6 8 5 16 44 51 46 43 41 38 36 34 33 28 24 26 31 34 34 33 28 26 31 37 38 39 36 17 356 5 22
227 249 284 306 331 339 308 293 299 23 127 169 188 210 223 218 210 212 226 235 184 139 142 166 195 196 203 225 234 236 249 257 255 255 257 252 246 242 229 228 252 261 257 260 350 359 332 323 319 319 326 334 350 9 5 358 5 12 9 19 41 44 45 49 50 48 46 43 41 38 33 32 35 38 38 39 38 36 36 39 43 48 50 50 53 61 64
226 245 290 313 329 325 290 279 256 130 157 183 186 198 213 216 215 219 236 253 202 153 156 179 207 207 212 225 226 232 247 251 243 242 245 245 244 241 231 233 249 254 254 294 10 6 330 314 320 337 338 338 358 12 357 343 351 359 1 24 44 42 44 52 55 55 56 52 49 49 47 44 41 37 35 36 40 44 45 46 50 56 61 66 72 76 75
230 249 281 294 301 295 282 273 225 169 178 188 192 199 205 212 229 272 300 285 254 178 165 178 199 203 205 212 217 222 229 232 234 239 241 239 238 234 230 239 256 264 279 321 347 333 309 306 324 346 351 359 12 3 339 325 330 331 332 26 50 43 42 48 49 49 52 54 54 55 56 56 54 48 40 37 40 45 50 53 56 59 63 68 75 79 80
251 255 267 282 290 284 269 262 247 216 198 192 197 207 202 196 207 226 237 249 248 203 185 200 211 209 214 223 223 211 195 195 207 220 223 223 225 226 233 244 243 226 239 277 294 275 314 343 4 358 355 4 2 344 327 329 338 336 341 49 67 56 44 43 47 50 49 49 52 55 56 59 58 54 49 48 49 50 53 56 60 62 64 68 73 77 80
252 254 263 271 278 274 258 243 236 241 230 212 210 224 229 225 223 223 235 252 251 217 205 223 233 238 246 245 228 183 167 187 207 215 214 212 213 220 233 236 202 186 206 245 227 194 7 41 59 336 335 349 350 336 332 341 345 349 3 42 68 79 71 52 49 56 56 53 55 56 54 55 55 52 51 55 58 58 56 59 63 67 71 73 74 79 84
248 248 258 260 253 252 254 242 225 226 228 222 221 229 235 237 233 229 240 259 266 265 262 235 223 240 293 357 107 144 194 226 231 229 224 221 225 232 232 186 157 175 218 254 184 213 323 98 176 287 331 353 9 356 358 355 354 2 19 17 19 51 74 68 60 62 62 62 63 62 58 58 56 53 52 56 61 64 65 65 68 72 75 79 82 85 89
239 231 238 251 254 249 246 237 228 230 231 228 230 234 230 220 222 234 241 241 236 250 263 232 200 206 236 245 207 199 224 237 240 241 235 221 223 238 240 148 151 181 233 228 163 237 274 160 197 300 332 358 131 134 26 8 2 12 33 22 10 24 46 55 57 64 69 72 72 70 67 66 63 59 55 55 59 65 69 71 74 76 78 81 85 88 90
245 233 234 244 248 247 242 228 223 230 232 229 230 233 227 219 223 240 258 262 243 220 227 235 218 204 212 219 213 209 216 223 229 239 240 225 215 217 210 175 168 208 256 211 182 232 220 188 256 314 333 83 144 87 45 24 7 13 35 35 24 24 32 37 43 47 54 67 78 80 75 72 71 70 66 61 59 60 62 66 73 79 82 84 86 87 88
248 238 237 238 243 247 245 234 225 229 230 229 229 230 229 227 227 231 245 259 262 235 206 231 246 236 216 210 210 215 220 215 209 218 239 245 210 180 175 176 191 252 255 201 187 214 229 243 287 317 355 140 130 81 52 30 11 24 42 43 44 50 48 45 46 46 45 53 68 79 83 83 80 77 76 75 69 63 60 64 72 78 82 85 86 87 89
264 247 233 227 237 250 255 256 248 235 223 223 230 228 223 224 225 223 229 246 258 251 221 221 236 240 230 219 213 214 219 217 212 218 234 249 132 148 162 173 193 227 193 156 166 223 242 260 293 301 153 143 115 76 51 25 24 52 54 44 54 69 67 65 71 68 56 55 66 78 85 93 97 96 94 93 89 81 74 72 73 75 78 83 87 91 96
273 260 233 216 224 234 253 278 277 255 226 216 228 234 230 229 229 226 226 233 242 246 241 231 225 225 228 227 222 214 211 213 214 211 201 178 161 176 185 194 216 227 201 175 189 225 246 268 283 149 150 140 107 73 51 34 50 69 64 53 61 73 77 87 98 95 84 83 90 94 90 88 94 103 105 102 100 98 94 92 93 91 88 89 90 92 97
278 274 258 241 232 219 220 259 284 286 273 253 239 226 222 229 233 232 231 230 230 231 234 234 228 219 214 216 225 227 225 227 222 201 184 174 169 181 196 211 227 218 198 192 203 229 252 246 162 149 145 132 100 69 61 73 77 72 69 71 69 63 64 77 88 96 101 102 102 103 102 96 95 99 102 101 103 106 104 104 110 112 108 106 106 103 101
281 282 278 272 261 233 205 211 251 281 281 276 272 265 249 241 237 233 233 234 234 230 225 223 227 224 211 206 212 221 227 238 238 181 164 164 166 172 186 207 213 182 171 179 201 244 298 146 154 152 140 117 88 69 79 104 104 87 83 88 84 76 82 91 89 89 96 103 101 103 109 110 107 107 108 108 109 109 108 112 120 126 125 122 118 113 112
279 283 281 277 274 259 221 205 216 232 245 263 288 299 289 265 254 251 241 229 231 245 243 231 226 222 211 204 206 210 210 211 205 169 155 163 171 176 187 207 209 181 162 163 188 238 275 163 158 157 142 106 87 98 110 110 112 108 104 104 101 98 101 106 101 95 96 103 109 111 113 113 114 115 117 118 117 111 104 102 106 111 116 118 117 116 120
281 280 273 270 279 287 275 254 243 241 244 259 270 267 258 248 290 299 291 274 251 274 291 287 271 247 217 198 197 203 204 196 188 182 180 175 166 167 179 195 204 189 169 163 179 228 256 184 161 162 152 125 126 171 163 142 131 128 123 120 120 112 102 100 107 114 113 114 120 122 121 122 124 122 121 123 125 117 104 98 101 105 109 112 114 116 118
245 264 273 272 271 278 279 271 259 248 239 236 245 253 254 227 242 276 282 279 261 233 242 279 287 278 253 212 193 193 194 187 179 178 184 183 175 176 187 199 210 207 187 176 182 208 221 207 197 188 166 149 172 206 190 167 156 153 148 141 137 130 124 128 137 137 130 127 128 126 123 124 126 125 123 125 125 121 115 115 116 116 115 114 113 112 110